Regional Weather Roundup
Issued by NWS Little Rock, AR

Home | Current Version | Previous Version | Text Only | Print | Product List | Glossary Off
Versions: 1 2 3 4 5 6 7 8 9 10 11 12 13 14 15 16 17 18 19 20 21 22 23 24 25 26 27 28 29 30 31 32 33 34 35 36 37 38 39 40 41 42 43 44 45 46 47 48 49 50

000
ASUS44 KLZK 030105
RWRLZK

WEATHER ROUNDUP FOR ARKANSAS
NATIONAL WEATHER SERVICE LITTLE ROCK AR
800 PM CDT SAT MAY 02 2015

NOTE: "FAIR" INDICATES FEW OR NO CLOUDS BELOW 12,000 FEET WITH NO
SIGNIFICANT WEATHER AND/OR OBSTRUCTIONS TO VISIBILITY.

ARZ001-003-010-029-030200-
NORTHWEST ARKANSAS

CITY           SKY/WX    TMP DP  RH WIND       PRES   REMARKS
FAYETTEVILLE   CLEAR     68  52  56 S3        30.00S
FORT SMITH     PTCLDY    75  50  41 S5        29.97S
HARRISON       MOCLDY    69  48  47 S6        30.01R
BENTONVILLE    CLEAR     70  48  46 S5        30.00S
ROGERS         CLEAR     70  50  49 S8        30.00S
SILOAM SPGS    CLEAR     70  48  46 S6        30.00S
HIGHFILL       CLEAR     68  51  54 S6        29.98
SPRINGDALE     CLEAR     70  50  49 S6        30.02S
$$

ARZ004-005-016-030200-
NORTH CENTRAL ARKANSAS

CITY           SKY/WX    TMP DP  RH WIND       PRES   REMARKS
BATESVILLE     CLEAR     70  45  40 SE5       30.01
FLIPPIN        MOCLDY    73  46  38 S5        29.98S
MTN HOME       MOCLDY    72  46  39 CALM      29.99S
$$

ARZ040-041-030200-
WEST CENTRAL ARKANSAS

CITY           SKY/WX    TMP DP  RH WIND       PRES   REMARKS
MENA           PTCLDY    72  54  53 CALM      30.02S
MOUNT IDA      PTCLDY    70  50  49 CALM      30.00S
$$

ARZ009-017-025-026-028-030200-
NORTHEAST ARKANSAS

CITY           SKY/WX    TMP DP  RH WIND       PRES   REMARKS
CORNING          N/A     70  43  37 S6        30.03R
JONESBORO      CLEAR     60  47  61 CALM      30.02S
NEWPORT        CLEAR     69  46  43 S14       30.03S
WALNUT RIDGE   CLEAR     70  43  37 S6        30.02S
BLYTHEVILLE    CLEAR     70  46  42 S7        30.03S
$$

ARZ022-023-033-042-044-030200-
CENTRAL ARKANSAS

CITY           SKY/WX    TMP DP  RH WIND       PRES   REMARKS
LITTLE ROCK    MOCLDY    71  47  42 SE5       30.02R
N LITTLE ROCK  MOCLDY    71  50  47 SE6       30.02
JACKSONVILLE   PTCLDY    67  52  58 SE1       30.01S
SEARCY         CLEAR     68  48  48 CALM      30.04R
HOT SPRINGS    PTCLDY    73  49  42 SE3       30.01S
RUSSELLVILLE   PTCLDY    69  56  62 SE3       29.99S
CLINTON        FAIR      66  54  63 CALM      30.02S
$$

ARZ036-030200-
EAST ARKANSAS

CITY           SKY/WX    TMP DP  RH WIND       PRES   REMARKS
WEST MEMPHIS   CLEAR     67  46  47 S5        30.02S
$$

ARZ050-053-066-070-073-030200-
SOUTHWEST ARKANSAS

CITY           SKY/WX    TMP DP  RH WIND       PRES   REMARKS
ARKADELPHIA    FAIR      70  60  70 CALM      30.01S
CAMDEN         LGT RAIN  66  54  63 CALM      30.01R
TEXARKANA      CLEAR     70  56  61 SE3       29.99S
EL DORADO      PTCLDY    71  57  61 NE3       30.01S
DE QUEEN       PTCLDY    70  58  65 SE3       29.97F
$$

ARZ056-057-069-030200-
SOUTHEAST ARKANSAS

CITY           SKY/WX    TMP DP  RH WIND       PRES   REMARKS
PINE BLUFF     PTCLDY    70  46  42 S5        30.02S
STUTTGART      PTCLDY    72  48  43 SE6       30.03S
MONTICELLO     PTCLDY    70  51  51 CALM      30.02S

$$





USA.gov is the U.S. government's official web portal to all federal, state and local government web resources and services.